Year,Month,Day,Hour,Minute,Value (Times are PST for temperature in C)
2020,10,02,00,00,12.90
2020,10,02,00,01,12.80
2020,10,02,00,02,12.80
2020,10,02,00,03,12.80
2020,10,02,00,04,12.80
2020,10,02,00,05,12.80
2020,10,02,00,06,12.80
2020,10,02,00,07,12.80
2020,10,02,00,08,12.80
2020,10,02,00,09,12.80
2020,10,02,00,10,12.80
2020,10,02,00,11,12.80
2020,10,02,00,12,12.80
2020,10,02,00,13,12.80
2020,10,02,00,14,12.80
2020,10,02,00,15,12.70
2020,10,02,00,16,12.70
2020,10,02,00,17,12.70
2020,10,02,00,18,12.70
2020,10,02,00,19,12.70
2020,10,02,00,20,12.70
2020,10,02,00,21,12.70
2020,10,02,00,22,12.70
2020,10,02,00,23,12.70
2020,10,02,00,24,12.70
2020,10,02,00,25,12.70
2020,10,02,00,26,12.70
2020,10,02,00,27,12.70
2020,10,02,00,28,12.70
2020,10,02,00,29,12.70
2020,10,02,00,30,12.60
2020,10,02,00,31,12.60
2020,10,02,00,32,12.60
2020,10,02,00,33,12.60
2020,10,02,00,34,12.60
2020,10,02,00,35,12.60
2020,10,02,00,36,12.50
2020,10,02,00,37,12.50
2020,10,02,00,38,12.50
2020,10,02,00,39,12.50
2020,10,02,00,40,12.50
2020,10,02,00,41,12.50
2020,10,02,00,42,12.50
2020,10,02,00,43,12.40
2020,10,02,00,44,12.40
2020,10,02,00,45,12.40
2020,10,02,00,46,12.40
2020,10,02,00,47,12.40
2020,10,02,00,48,12.40
2020,10,02,00,49,12.40
2020,10,02,00,50,12.40
2020,10,02,00,51,12.40
2020,10,02,00,52,12.30
2020,10,02,00,53,12.30
2020,10,02,00,54,12.30
2020,10,02,00,55,12.30
2020,10,02,00,56,12.30
2020,10,02,00,57,12.30
2020,10,02,00,58,12.30
2020,10,02,00,59,12.30
2020,10,02,01,00,12.30
2020,10,02,01,01,12.30
2020,10,02,01,02,12.20
2020,10,02,01,03,12.20
2020,10,02,01,04,12.20
2020,10,02,01,05,12.20
2020,10,02,01,06,12.20
2020,10,02,01,07,12.20
2020,10,02,01,08,12.20
2020,10,02,01,09,12.20
2020,10,02,01,10,12.20
2020,10,02,01,11,12.20
2020,10,02,01,12,12.20
2020,10,02,01,13,12.20
2020,10,02,01,14,12.20
2020,10,02,01,15,12.10
2020,10,02,01,16,12.10
2020,10,02,01,17,12.10
2020,10,02,01,18,12.10
2020,10,02,01,19,12.10
2020,10,02,01,20,12.00
2020,10,02,01,21,12.00
2020,10,02,01,22,12.00
2020,10,02,01,23,12.00
2020,10,02,01,24,12.00
2020,10,02,01,25,11.90
2020,10,02,01,26,11.90
2020,10,02,01,27,11.90
2020,10,02,01,28,11.90
2020,10,02,01,29,11.90
2020,10,02,01,30,11.90
2020,10,02,01,31,11.90
2020,10,02,01,32,11.90
2020,10,02,01,33,11.90
2020,10,02,01,34,11.90
2020,10,02,01,35,11.90
2020,10,02,01,36,11.90
2020,10,02,01,37,11.90
2020,10,02,01,38,11.90
2020,10,02,01,39,11.90
2020,10,02,01,40,11.90
2020,10,02,01,41,11.90
2020,10,02,01,42,11.90
2020,10,02,01,43,11.90
2020,10,02,01,44,11.90
2020,10,02,01,45,11.90
2020,10,02,01,46,11.90
2020,10,02,01,47,11.90
2020,10,02,01,48,11.90
2020,10,02,01,49,11.90
2020,10,02,01,50,11.90
2020,10,02,01,51,11.90
2020,10,02,01,52,11.90
2020,10,02,01,53,11.90
2020,10,02,01,54,11.90
2020,10,02,01,55,11.90
2020,10,02,01,56,11.90
2020,10,02,01,57,11.90
2020,10,02,01,58,11.80
2020,10,02,01,59,11.80
2020,10,02,02,00,11.80
2020,10,02,02,01,11.80
2020,10,02,02,02,11.80
2020,10,02,02,03,11.80
2020,10,02,02,04,11.80
2020,10,02,02,05,11.80
2020,10,02,02,06,11.80
2020,10,02,02,07,11.70
2020,10,02,02,08,11.70
2020,10,02,02,09,11.70
2020,10,02,02,10,11.70
2020,10,02,02,11,11.70
2020,10,02,02,12,11.70
2020,10,02,02,13,11.70
2020,10,02,02,14,11.70
2020,10,02,02,15,11.70
2020,10,02,02,16,11.70
2020,10,02,02,17,11.70
2020,10,02,02,18,11.70
2020,10,02,02,19,11.70
2020,10,02,02,20,11.60
2020,10,02,02,21,11.60
2020,10,02,02,22,11.60
2020,10,02,02,23,11.60
2020,10,02,02,24,11.60
2020,10,02,02,25,11.60
2020,10,02,02,26,11.60
2020,10,02,02,27,11.60
2020,10,02,02,28,11.60
2020,10,02,02,29,11.60
2020,10,02,02,30,11.60
2020,10,02,02,31,11.60
2020,10,02,02,32,11.60
2020,10,02,02,33,11.60
2020,10,02,02,34,11.60
2020,10,02,02,35,11.60
2020,10,02,02,36,11.50
2020,10,02,02,37,11.50
2020,10,02,02,38,11.50
2020,10,02,02,39,11.50
2020,10,02,02,40,11.50
2020,10,02,02,41,11.50
2020,10,02,02,42,11.50
2020,10,02,02,43,11.50
2020,10,02,02,44,11.40
2020,10,02,02,45,11.40
2020,10,02,02,46,11.40
2020,10,02,02,47,11.40
2020,10,02,02,48,11.40
2020,10,02,02,49,11.40
2020,10,02,02,50,11.40
2020,10,02,02,51,11.40
2020,10,02,02,52,11.40
2020,10,02,02,53,11.40
2020,10,02,02,54,11.40
2020,10,02,02,55,11.40
2020,10,02,02,56,11.40
2020,10,02,02,57,11.40
2020,10,02,02,58,11.40
2020,10,02,02,59,11.40
2020,10,02,03,00,11.40
2020,10,02,03,01,11.40
2020,10,02,03,02,11.40
2020,10,02,03,03,11.40
2020,10,02,03,04,11.40
2020,10,02,03,05,11.40
2020,10,02,03,06,11.30
2020,10,02,03,07,11.30
2020,10,02,03,08,11.30
2020,10,02,03,09,11.30
2020,10,02,03,10,11.30
2020,10,02,03,11,11.30
2020,10,02,03,12,11.30
2020,10,02,03,13,11.30
2020,10,02,03,14,11.30
2020,10,02,03,15,11.30
2020,10,02,03,16,11.30
2020,10,02,03,17,11.30
2020,10,02,03,18,11.30
2020,10,02,03,19,11.30
2020,10,02,03,20,11.20
2020,10,02,03,21,11.20
2020,10,02,03,22,11.20
2020,10,02,03,23,11.20
2020,10,02,03,24,11.20
2020,10,02,03,25,11.20
2020,10,02,03,26,11.20
2020,10,02,03,27,11.20
2020,10,02,03,28,11.20
2020,10,02,03,29,11.20
2020,10,02,03,30,11.20
2020,10,02,03,31,11.20
2020,10,02,03,32,11.20
2020,10,02,03,33,11.20
2020,10,02,03,34,11.20
2020,10,02,03,35,11.20
2020,10,02,03,36,11.20
2020,10,02,03,37,11.20
2020,10,02,03,38,11.20
2020,10,02,03,39,11.10
2020,10,02,03,40,11.10
2020,10,02,03,41,11.10
2020,10,02,03,42,11.10
2020,10,02,03,43,11.10
2020,10,02,03,44,11.10
2020,10,02,03,45,11.10
2020,10,02,03,46,11.10
2020,10,02,03,47,11.10
2020,10,02,03,48,11.10
2020,10,02,03,49,11.10
2020,10,02,03,50,11.10
2020,10,02,03,51,11.10
2020,10,02,03,52,11.10
2020,10,02,03,53,11.10
2020,10,02,03,54,11.10
2020,10,02,03,55,11.00
2020,10,02,03,56,11.00
2020,10,02,03,57,11.00
2020,10,02,03,58,11.00
2020,10,02,03,59,11.00
2020,10,02,04,00,10.90
2020,10,02,04,01,10.90
2020,10,02,04,02,10.90
2020,10,02,04,03,10.90
2020,10,02,04,04,10.90
2020,10,02,04,05,10.90
2020,10,02,04,06,10.90
2020,10,02,04,07,10.90
2020,10,02,04,08,10.90
2020,10,02,04,09,10.90
2020,10,02,04,10,10.90
2020,10,02,04,11,10.90
2020,10,02,04,12,10.90
2020,10,02,04,13,10.90
2020,10,02,04,14,10.90
2020,10,02,04,15,10.90
2020,10,02,04,16,10.90
2020,10,02,04,17,10.90
2020,10,02,04,18,10.90
2020,10,02,04,19,10.90
2020,10,02,04,20,10.90
2020,10,02,04,21,10.90
2020,10,02,04,22,10.90
2020,10,02,04,23,10.90
2020,10,02,04,24,10.90
2020,10,02,04,25,10.90
2020,10,02,04,26,10.80
2020,10,02,04,27,10.80
2020,10,02,04,28,10.80
2020,10,02,04,29,10.80
2020,10,02,04,30,10.80
2020,10,02,04,31,10.80
2020,10,02,04,32,10.80
2020,10,02,04,33,10.80
2020,10,02,04,34,10.80
2020,10,02,04,35,10.80
2020,10,02,04,36,10.80
2020,10,02,04,37,10.80
2020,10,02,04,38,10.80
2020,10,02,04,39,10.80
2020,10,02,04,40,10.80
2020,10,02,04,41,10.80
2020,10,02,04,42,10.80
2020,10,02,04,43,10.70
2020,10,02,04,44,10.70
2020,10,02,04,45,10.70
2020,10,02,04,46,10.70
2020,10,02,04,47,10.70
2020,10,02,04,48,10.70
2020,10,02,04,49,10.70
2020,10,02,04,50,10.70
2020,10,02,04,51,10.70
2020,10,02,04,52,10.70
2020,10,02,04,53,10.70
2020,10,02,04,54,10.70
2020,10,02,04,55,10.70
2020,10,02,04,56,10.70
2020,10,02,04,57,10.70
2020,10,02,04,58,10.70
2020,10,02,04,59,10.70
2020,10,02,05,00,10.70
2020,10,02,05,01,10.70
2020,10,02,05,02,10.70
2020,10,02,05,03,10.70
2020,10,02,05,04,10.70
2020,10,02,05,05,10.70
2020,10,02,05,06,10.70
2020,10,02,05,07,10.70
2020,10,02,05,08,10.70
2020,10,02,05,09,10.70
2020,10,02,05,10,10.60
2020,10,02,05,11,10.60
2020,10,02,05,12,10.60
2020,10,02,05,13,10.60
2020,10,02,05,14,10.60
2020,10,02,05,15,10.60
2020,10,02,05,16,10.60
2020,10,02,05,17,10.60
2020,10,02,05,18,10.60
2020,10,02,05,19,10.60
2020,10,02,05,20,10.60
2020,10,02,05,21,10.70
2020,10,02,05,22,10.60
2020,10,02,05,23,10.60
2020,10,02,05,24,10.60
2020,10,02,05,25,10.60
2020,10,02,05,26,10.60
2020,10,02,05,27,10.60
2020,10,02,05,28,10.60
2020,10,02,05,29,10.60
2020,10,02,05,30,10.60
2020,10,02,05,31,10.60
2020,10,02,05,32,10.60
2020,10,02,05,33,10.60
2020,10,02,05,34,10.60
2020,10,02,05,35,10.60
2020,10,02,05,36,10.60
2020,10,02,05,37,10.60
2020,10,02,05,38,10.60
2020,10,02,05,39,10.60
2020,10,02,05,40,10.60
2020,10,02,05,41,10.60
2020,10,02,05,42,10.60
2020,10,02,05,43,10.60
2020,10,02,05,44,10.60
2020,10,02,05,45,10.60
2020,10,02,05,46,10.60
2020,10,02,05,47,10.60
2020,10,02,05,48,10.60
2020,10,02,05,49,10.60
2020,10,02,05,50,10.60
2020,10,02,05,51,10.60
2020,10,02,05,52,10.60
2020,10,02,05,53,10.60
2020,10,02,05,54,10.60
2020,10,02,05,55,10.50
2020,10,02,05,56,10.50
2020,10,02,05,57,10.50
2020,10,02,05,58,10.50
2020,10,02,05,59,10.50
2020,10,02,06,00,10.50
2020,10,02,06,01,10.50
2020,10,02,06,02,10.60
2020,10,02,06,03,10.60
2020,10,02,06,04,10.60
2020,10,02,06,05,10.60
2020,10,02,06,06,10.50
2020,10,02,06,07,10.50
2020,10,02,06,08,10.50
2020,10,02,06,09,10.50
2020,10,02,06,10,10.50
2020,10,02,06,11,10.50
2020,10,02,06,12,10.50
2020,10,02,06,13,10.50
2020,10,02,06,14,10.50
2020,10,02,06,15,10.40
2020,10,02,06,16,10.40
2020,10,02,06,17,10.40
2020,10,02,06,18,10.40
2020,10,02,06,19,10.40
2020,10,02,06,20,10.40
2020,10,02,06,21,10.40
2020,10,02,06,22,10.40
2020,10,02,06,23,10.40
2020,10,02,06,24,10.40
2020,10,02,06,25,10.40
2020,10,02,06,26,10.40
2020,10,02,06,27,10.40
2020,10,02,06,28,10.40
2020,10,02,06,29,10.40
2020,10,02,06,30,10.40
2020,10,02,06,31,10.40
2020,10,02,06,32,10.40
2020,10,02,06,33,10.30
2020,10,02,06,34,10.30
2020,10,02,06,35,10.30
2020,10,02,06,36,10.30
2020,10,02,06,37,10.30
2020,10,02,06,38,10.30
2020,10,02,06,39,10.30
2020,10,02,06,40,10.30
2020,10,02,06,41,10.30
2020,10,02,06,42,10.40
2020,10,02,06,43,10.40
2020,10,02,06,44,10.30
2020,10,02,06,45,10.30
2020,10,02,06,46,10.30
2020,10,02,06,47,10.30
2020,10,02,06,48,10.30
2020,10,02,06,49,10.30
2020,10,02,06,50,10.30
2020,10,02,06,51,10.30
2020,10,02,06,52,10.30
2020,10,02,06,53,10.30
2020,10,02,06,54,10.30
2020,10,02,06,55,10.30
2020,10,02,06,56,10.30
2020,10,02,06,57,10.30
2020,10,02,06,58,10.30
2020,10,02,06,59,10.30
2020,10,02,07,00,10.30
2020,10,02,07,01,10.30
2020,10,02,07,02,10.30
2020,10,02,07,03,10.30
2020,10,02,07,04,10.30
2020,10,02,07,05,10.30
2020,10,02,07,06,10.30
2020,10,02,07,07,10.40
2020,10,02,07,08,10.40
2020,10,02,07,09,10.30
2020,10,02,07,10,10.30
2020,10,02,07,11,10.30
2020,10,02,07,12,10.30
2020,10,02,07,13,10.30
2020,10,02,07,14,10.30
2020,10,02,07,15,10.30
2020,10,02,07,16,10.30
2020,10,02,07,17,10.30
2020,10,02,07,18,10.30
2020,10,02,07,19,10.30
2020,10,02,07,20,10.30
2020,10,02,07,21,10.30
2020,10,02,07,22,10.30
2020,10,02,07,23,10.30
2020,10,02,07,24,10.30
2020,10,02,07,25,10.30
2020,10,02,07,26,10.30
2020,10,02,07,27,10.30
2020,10,02,07,28,10.30
2020,10,02,07,29,10.30
2020,10,02,07,30,10.30
2020,10,02,07,31,10.30
2020,10,02,07,32,10.30
2020,10,02,07,33,10.30
2020,10,02,07,34,10.30
2020,10,02,07,35,10.30
2020,10,02,07,36,10.30
2020,10,02,07,37,10.30
2020,10,02,07,38,10.30
2020,10,02,07,39,10.30
2020,10,02,07,40,10.30
2020,10,02,07,41,10.30
2020,10,02,07,42,10.40
2020,10,02,07,43,10.40
2020,10,02,07,44,10.40
2020,10,02,07,45,10.40
2020,10,02,07,46,10.40
2020,10,02,07,47,10.40
2020,10,02,07,48,10.50
2020,10,02,07,49,10.50
2020,10,02,07,50,10.40
2020,10,02,07,51,10.40
2020,10,02,07,52,10.40
2020,10,02,07,53,10.40
2020,10,02,07,54,10.40
2020,10,02,07,55,10.50
2020,10,02,07,56,10.50
2020,10,02,07,57,10.50
2020,10,02,07,58,10.50
2020,10,02,07,59,10.50
2020,10,02,08,00,10.50
2020,10,02,08,01,10.50
2020,10,02,08,02,10.50
2020,10,02,08,03,10.50
2020,10,02,08,04,10.60
2020,10,02,08,05,10.60
2020,10,02,08,06,10.60
2020,10,02,08,07,10.60
2020,10,02,08,08,10.60
2020,10,02,08,09,10.70
2020,10,02,08,10,10.70
2020,10,02,08,11,10.70
2020,10,02,08,12,10.80
2020,10,02,08,13,10.80
2020,10,02,08,14,10.80
2020,10,02,08,15,10.90
2020,10,02,08,16,10.90
2020,10,02,08,17,10.90
2020,10,02,08,18,10.90
2020,10,02,08,19,11.00
2020,10,02,08,20,11.00
2020,10,02,08,21,11.00
2020,10,02,08,22,11.10
2020,10,02,08,23,11.10
2020,10,02,08,24,11.20
2020,10,02,08,25,11.20
2020,10,02,08,26,11.30
2020,10,02,08,27,11.40
2020,10,02,08,28,11.50
2020,10,02,08,29,11.60
2020,10,02,08,30,11.60
2020,10,02,08,31,11.70
2020,10,02,08,32,11.70
2020,10,02,08,33,11.70
2020,10,02,08,34,11.70
2020,10,02,08,35,11.80
2020,10,02,08,36,11.80
2020,10,02,08,37,11.80
2020,10,02,08,38,11.80
2020,10,02,08,39,11.80
2020,10,02,08,40,11.90
2020,10,02,08,41,11.90
2020,10,02,08,42,12.00
2020,10,02,08,43,12.10
2020,10,02,08,44,12.10
2020,10,02,08,45,12.10
2020,10,02,08,46,12.20
2020,10,02,08,47,12.20
2020,10,02,08,48,12.20
2020,10,02,08,49,12.20
2020,10,02,08,50,12.20
2020,10,02,08,51,12.30
2020,10,02,08,52,12.30
2020,10,02,08,53,12.40
2020,10,02,08,54,12.50
2020,10,02,08,55,12.50
2020,10,02,08,56,12.60
2020,10,02,08,57,12.70
2020,10,02,08,58,12.80
2020,10,02,08,59,12.80
2020,10,02,09,00,12.90
2020,10,02,09,01,13.00
2020,10,02,09,02,13.10
2020,10,02,09,03,13.20
2020,10,02,09,04,13.30
2020,10,02,09,05,13.40
2020,10,02,09,06,13.40
2020,10,02,09,07,13.40
2020,10,02,09,08,13.40
2020,10,02,09,09,13.30
2020,10,02,09,10,13.30
2020,10,02,09,11,13.20
2020,10,02,09,12,13.20
2020,10,02,09,13,13.20
2020,10,02,09,14,13.20
2020,10,02,09,15,13.20
2020,10,02,09,16,13.30
2020,10,02,09,17,13.30
2020,10,02,09,18,13.40
2020,10,02,09,19,13.50
2020,10,02,09,20,13.60
2020,10,02,09,21,13.70
2020,10,02,09,22,13.80
2020,10,02,09,23,13.90
2020,10,02,09,24,14.00
2020,10,02,09,25,14.10
2020,10,02,09,26,14.20
2020,10,02,09,27,14.20
2020,10,02,09,28,14.30
2020,10,02,09,29,14.30
2020,10,02,09,30,14.30
2020,10,02,09,31,14.40
2020,10,02,09,32,14.40
2020,10,02,09,33,14.50
2020,10,02,09,34,14.60
2020,10,02,09,35,14.70
2020,10,02,09,36,14.70
2020,10,02,09,37,14.80
2020,10,02,09,38,14.80
2020,10,02,09,39,14.90
2020,10,02,09,40,15.00
2020,10,02,09,41,15.10
2020,10,02,09,42,15.20
2020,10,02,09,43,15.30
2020,10,02,09,44,15.40
2020,10,02,09,45,15.50
2020,10,02,09,46,15.60
2020,10,02,09,47,15.60
2020,10,02,09,48,15.70
2020,10,02,09,49,15.80
2020,10,02,09,50,15.80
2020,10,02,09,51,15.80
2020,10,02,09,52,15.80
2020,10,02,09,53,15.90
2020,10,02,09,54,15.90
2020,10,02,09,55,15.90
2020,10,02,09,56,16.00
2020,10,02,09,57,16.00
2020,10,02,09,58,16.10
2020,10,02,09,59,16.10
2020,10,02,10,00,16.20
2020,10,02,10,01,16.20
2020,10,02,10,02,16.20
2020,10,02,10,03,16.30
2020,10,02,10,04,16.30
2020,10,02,10,05,16.40
2020,10,02,10,06,16.50
2020,10,02,10,07,16.50
2020,10,02,10,08,16.60
2020,10,02,10,09,16.60
2020,10,02,10,10,16.60
2020,10,02,10,11,16.60
2020,10,02,10,12,16.70
2020,10,02,10,13,16.70
2020,10,02,10,14,16.70
2020,10,02,10,15,16.80
2020,10,02,10,16,16.80
2020,10,02,10,17,16.80
2020,10,02,10,18,16.80
2020,10,02,10,19,16.90
2020,10,02,10,20,16.90
2020,10,02,10,21,17.00
2020,10,02,10,22,17.00
2020,10,02,10,23,17.10
2020,10,02,10,24,17.10
2020,10,02,10,25,17.10
2020,10,02,10,26,17.20
2020,10,02,10,27,17.20
2020,10,02,10,28,17.20
2020,10,02,10,29,17.30
2020,10,02,10,30,17.30
2020,10,02,10,31,17.30
2020,10,02,10,32,17.30
2020,10,02,10,33,17.30
2020,10,02,10,34,17.30
2020,10,02,10,35,17.30
2020,10,02,10,36,17.30
2020,10,02,10,37,17.40
2020,10,02,10,38,17.40
2020,10,02,10,39,17.40
2020,10,02,10,40,17.50
2020,10,02,10,41,17.50
2020,10,02,10,42,17.50
2020,10,02,10,43,17.50
2020,10,02,10,44,17.50
2020,10,02,10,45,17.50
2020,10,02,10,46,17.50
2020,10,02,10,47,17.50
2020,10,02,10,48,17.50
2020,10,02,10,49,17.50
2020,10,02,10,50,17.60
2020,10,02,10,51,17.60
2020,10,02,10,52,17.70
2020,10,02,10,53,17.70
2020,10,02,10,54,17.80
2020,10,02,10,55,17.80
2020,10,02,10,56,17.80
2020,10,02,10,57,17.80
2020,10,02,10,58,17.90
2020,10,02,10,59,17.90
2020,10,02,11,00,18.00
2020,10,02,11,01,18.10
2020,10,02,11,02,18.20
2020,10,02,11,03,18.20
2020,10,02,11,04,18.20
2020,10,02,11,05,18.20
2020,10,02,11,06,18.30
2020,10,02,11,07,18.30
2020,10,02,11,08,18.30
2020,10,02,11,09,18.30
2020,10,02,11,10,18.40
2020,10,02,11,11,18.40
2020,10,02,11,12,18.50
2020,10,02,11,13,18.60
2020,10,02,11,14,18.60
2020,10,02,11,15,18.70
2020,10,02,11,16,18.70
2020,10,02,11,17,18.80
2020,10,02,11,18,18.90
2020,10,02,11,19,18.90
2020,10,02,11,20,18.90
2020,10,02,11,21,19.00
2020,10,02,11,22,19.10
2020,10,02,11,23,19.20
2020,10,02,11,24,19.30
2020,10,02,11,25,19.30
2020,10,02,11,26,19.40
2020,10,02,11,27,19.40
2020,10,02,11,28,19.50
2020,10,02,11,29,19.50
2020,10,02,11,30,19.60
2020,10,02,11,31,19.60
2020,10,02,11,32,19.70
2020,10,02,11,33,19.70
2020,10,02,11,34,19.70
2020,10,02,11,35,19.70
2020,10,02,11,36,19.70
2020,10,02,11,37,19.80
2020,10,02,11,38,19.80
2020,10,02,11,39,19.80
2020,10,02,11,40,19.80
2020,10,02,11,41,19.80
2020,10,02,11,42,19.80
2020,10,02,11,43,19.80
2020,10,02,11,44,19.70
2020,10,02,11,45,19.70
2020,10,02,11,46,19.70
2020,10,02,11,47,19.70
2020,10,02,11,48,19.70
2020,10,02,11,49,19.70
2020,10,02,11,50,19.70
2020,10,02,11,51,19.70
2020,10,02,11,52,19.70
2020,10,02,11,53,19.70
2020,10,02,11,54,19.70
2020,10,02,11,55,19.70
2020,10,02,11,56,19.80
2020,10,02,11,57,19.80
2020,10,02,11,58,19.80
2020,10,02,11,59,19.80
2020,10,02,12,00,19.90
2020,10,02,12,01,19.90
2020,10,02,12,02,19.90
2020,10,02,12,03,19.90
2020,10,02,12,04,20.00
2020,10,02,12,05,20.00
2020,10,02,12,06,20.00
2020,10,02,12,07,20.00
2020,10,02,12,08,20.00
2020,10,02,12,09,20.10
2020,10,02,12,10,20.10
2020,10,02,12,11,20.10
2020,10,02,12,12,20.10
2020,10,02,12,13,20.20
2020,10,02,12,14,20.20
2020,10,02,12,15,20.20
2020,10,02,12,16,20.20
2020,10,02,12,17,20.20
2020,10,02,12,18,20.20
2020,10,02,12,19,20.20
2020,10,02,12,20,20.20
2020,10,02,12,21,20.20
2020,10,02,12,22,20.20
2020,10,02,12,23,20.20
2020,10,02,12,24,20.20
2020,10,02,12,25,20.20
2020,10,02,12,26,20.20
2020,10,02,12,27,20.20
2020,10,02,12,28,20.10
2020,10,02,12,29,20.10
2020,10,02,12,30,20.10
2020,10,02,12,31,20.20
2020,10,02,12,32,20.20
2020,10,02,12,33,20.20
2020,10,02,12,34,20.20
2020,10,02,12,35,20.20
2020,10,02,12,36,20.20
2020,10,02,12,37,20.20
2020,10,02,12,38,20.20
2020,10,02,12,39,20.20
2020,10,02,12,40,20.20
2020,10,02,12,41,20.20
2020,10,02,12,42,20.30
2020,10,02,12,43,20.30
2020,10,02,12,44,20.30
2020,10,02,12,45,20.30
2020,10,02,12,46,20.30
2020,10,02,12,47,20.30
2020,10,02,12,48,20.40
2020,10,02,12,49,20.40
2020,10,02,12,50,20.40
2020,10,02,12,51,20.40
2020,10,02,12,52,20.40
2020,10,02,12,53,20.40
2020,10,02,12,54,20.40
2020,10,02,12,55,20.40
2020,10,02,12,56,20.50
2020,10,02,12,57,20.50
2020,10,02,12,58,20.50
2020,10,02,12,59,20.60
2020,10,02,13,00,20.60
2020,10,02,13,01,20.60
2020,10,02,13,02,20.70
2020,10,02,13,03,20.70
2020,10,02,13,04,20.70
2020,10,02,13,05,20.70
2020,10,02,13,06,20.70
2020,10,02,13,07,20.70
2020,10,02,13,08,20.80
2020,10,02,13,09,20.80
2020,10,02,13,10,20.80
2020,10,02,13,11,20.80
2020,10,02,13,12,20.80
2020,10,02,13,13,20.80
2020,10,02,13,14,20.80
2020,10,02,13,15,20.80
2020,10,02,13,16,20.80
2020,10,02,13,17,20.70
2020,10,02,13,18,20.70
2020,10,02,13,19,20.70
2020,10,02,13,20,20.70
2020,10,02,13,21,20.70
2020,10,02,13,22,20.70
2020,10,02,13,23,20.70
2020,10,02,13,24,20.70
2020,10,02,13,25,20.80
2020,10,02,13,26,20.80
2020,10,02,13,27,20.80
2020,10,02,13,28,20.90
2020,10,02,13,29,20.90
2020,10,02,13,30,21.00
2020,10,02,13,31,21.10
2020,10,02,13,32,21.10
2020,10,02,13,33,21.00
2020,10,02,13,34,21.00
2020,10,02,13,35,21.10
2020,10,02,13,36,21.10
2020,10,02,13,37,21.10
2020,10,02,13,38,21.10
2020,10,02,13,39,21.10
2020,10,02,13,40,21.10
2020,10,02,13,41,21.20
2020,10,02,13,42,21.20
2020,10,02,13,43,21.20
2020,10,02,13,44,21.20
2020,10,02,13,45,21.30
2020,10,02,13,46,21.30
2020,10,02,13,47,21.40
2020,10,02,13,48,21.50
2020,10,02,13,49,21.50
2020,10,02,13,50,21.60
2020,10,02,13,51,21.70
2020,10,02,13,52,21.70
2020,10,02,13,53,21.80
2020,10,02,13,54,21.90
2020,10,02,13,55,21.90
2020,10,02,13,56,21.90
2020,10,02,13,57,22.00
2020,10,02,13,58,22.00
2020,10,02,13,59,22.00
2020,10,02,14,00,22.00
2020,10,02,14,01,21.90
2020,10,02,14,02,21.90
2020,10,02,14,03,21.90
2020,10,02,14,04,21.90
2020,10,02,14,05,21.80
2020,10,02,14,06,21.80
2020,10,02,14,07,21.80
2020,10,02,14,08,21.80
2020,10,02,14,09,21.80
2020,10,02,14,10,21.80
2020,10,02,14,11,21.80
2020,10,02,14,12,21.80
2020,10,02,14,13,21.80
2020,10,02,14,14,21.90
2020,10,02,14,15,21.90
2020,10,02,14,16,21.90
2020,10,02,14,17,21.90
2020,10,02,14,18,21.90
2020,10,02,14,19,21.90
2020,10,02,14,20,21.90
2020,10,02,14,21,21.90
2020,10,02,14,22,22.00
2020,10,02,14,23,22.00
2020,10,02,14,24,22.00
2020,10,02,14,25,22.00
2020,10,02,14,26,22.00
2020,10,02,14,27,22.10
2020,10,02,14,28,22.10
2020,10,02,14,29,22.00
2020,10,02,14,30,22.00
2020,10,02,14,31,22.10
2020,10,02,14,32,22.10
2020,10,02,14,33,22.20
2020,10,02,14,34,22.20
2020,10,02,14,35,22.20
2020,10,02,14,36,22.20
2020,10,02,14,37,22.20
2020,10,02,14,38,22.30
2020,10,02,14,39,22.30
2020,10,02,14,40,22.30
2020,10,02,14,41,22.40
2020,10,02,14,42,22.50
2020,10,02,14,43,22.50
2020,10,02,14,44,22.60
2020,10,02,14,45,22.60
2020,10,02,14,46,22.60
2020,10,02,14,47,22.70
2020,10,02,14,48,22.70
2020,10,02,14,49,22.70
2020,10,02,14,50,22.70
2020,10,02,14,51,22.80
2020,10,02,14,52,22.90
2020,10,02,14,53,23.10
2020,10,02,14,54,23.20
2020,10,02,14,55,23.30
2020,10,02,14,56,23.30
2020,10,02,14,57,23.30
2020,10,02,14,58,23.40
2020,10,02,14,59,23.40
2020,10,02,15,00,23.50
2020,10,02,15,01,23.50
2020,10,02,15,02,23.60
2020,10,02,15,03,23.60
2020,10,02,15,04,23.60
2020,10,02,15,05,23.70
2020,10,02,15,06,23.70
2020,10,02,15,07,23.70
2020,10,02,15,08,23.70
2020,10,02,15,09,23.70
2020,10,02,15,10,23.60
2020,10,02,15,11,23.60
2020,10,02,15,12,23.60
2020,10,02,15,13,23.60
2020,10,02,15,14,23.60
2020,10,02,15,15,23.60
2020,10,02,15,16,23.60
2020,10,02,15,17,23.60
2020,10,02,15,18,23.60
2020,10,02,15,19,23.60
2020,10,02,15,20,23.60
2020,10,02,15,21,23.70
2020,10,02,15,22,23.70
2020,10,02,15,23,23.70
2020,10,02,15,24,23.70
2020,10,02,15,25,23.60
2020,10,02,15,26,23.60
2020,10,02,15,27,23.60
2020,10,02,15,28,23.60
2020,10,02,15,29,23.60
2020,10,02,15,30,23.50
2020,10,02,15,31,23.40
2020,10,02,15,32,23.30
2020,10,02,15,33,23.10
2020,10,02,15,34,23.00
2020,10,02,15,35,22.90
2020,10,02,15,36,22.80
2020,10,02,15,37,22.70
2020,10,02,15,38,22.60
2020,10,02,15,39,22.60
2020,10,02,15,40,22.50
2020,10,02,15,41,22.40
2020,10,02,15,42,22.40
2020,10,02,15,43,22.30
2020,10,02,15,44,22.30
2020,10,02,15,45,22.30
2020,10,02,15,46,22.20
2020,10,02,15,47,22.10
2020,10,02,15,48,22.10
2020,10,02,15,49,22.00
2020,10,02,15,50,22.00
2020,10,02,15,51,21.90
2020,10,02,15,52,22.00
2020,10,02,15,53,22.00
2020,10,02,15,54,22.00
2020,10,02,15,55,22.00
2020,10,02,15,56,22.00
2020,10,02,15,57,22.00
2020,10,02,15,58,22.00
2020,10,02,15,59,22.00
2020,10,02,16,00,22.00
2020,10,02,16,01,22.00
2020,10,02,16,02,21.90
2020,10,02,16,03,21.90
2020,10,02,16,04,21.90
2020,10,02,16,05,21.90
2020,10,02,16,06,21.90
2020,10,02,16,07,21.80
2020,10,02,16,08,21.60
2020,10,02,16,09,21.50
2020,10,02,16,10,21.40
2020,10,02,16,11,21.30
2020,10,02,16,12,21.20
2020,10,02,16,13,21.10
2020,10,02,16,14,21.00
2020,10,02,16,15,20.80
2020,10,02,16,16,20.70
2020,10,02,16,17,20.60
2020,10,02,16,18,20.50
2020,10,02,16,19,20.40
2020,10,02,16,20,20.30
2020,10,02,16,21,20.20
2020,10,02,16,22,20.10
2020,10,02,16,23,20.00
2020,10,02,16,24,20.00
2020,10,02,16,25,19.90
2020,10,02,16,26,19.90
2020,10,02,16,27,19.90
2020,10,02,16,28,19.80
2020,10,02,16,29,19.70
2020,10,02,16,30,19.70
2020,10,02,16,31,19.60
2020,10,02,16,32,19.50
2020,10,02,16,33,19.40
2020,10,02,16,34,19.30
2020,10,02,16,35,19.20
2020,10,02,16,36,19.20
2020,10,02,16,37,19.20
2020,10,02,16,38,19.10
2020,10,02,16,39,19.10
2020,10,02,16,40,19.00
2020,10,02,16,41,19.00
2020,10,02,16,42,18.90
2020,10,02,16,43,18.90
2020,10,02,16,44,18.80
2020,10,02,16,45,18.80
2020,10,02,16,46,18.80
2020,10,02,16,47,18.80
2020,10,02,16,48,18.90
2020,10,02,16,49,18.90
2020,10,02,16,50,18.90
2020,10,02,16,51,18.90
2020,10,02,16,52,18.80
2020,10,02,16,53,18.80
2020,10,02,16,54,18.80
2020,10,02,16,55,18.80
2020,10,02,16,56,18.80
2020,10,02,16,57,18.80
2020,10,02,16,58,18.80
2020,10,02,16,59,18.80
2020,10,02,17,00,18.70
2020,10,02,17,01,18.70
2020,10,02,17,02,18.80
2020,10,02,17,03,18.80
2020,10,02,17,04,18.80
2020,10,02,17,05,18.80
2020,10,02,17,06,18.80
2020,10,02,17,07,18.80
2020,10,02,17,08,18.80
2020,10,02,17,09,18.80
2020,10,02,17,10,18.80
2020,10,02,17,11,18.80
2020,10,02,17,12,18.80
2020,10,02,17,13,18.70
2020,10,02,17,14,18.70
2020,10,02,17,15,18.70
2020,10,02,17,16,18.70
2020,10,02,17,17,18.70
2020,10,02,17,18,18.70
2020,10,02,17,19,18.70